Voltar ao catálogo

STARLINK-3616

AtivoComunicaçõesVLEO
NORAD 51782·PAYLOAD·🇺🇸 United States

Lançado Feb 25, 2022 de Vandenberg Space Force Base

Loading…

Próximas Passagens (próximas 24 horas)

TLE

AtualizadoSource: CelesTrak SupGP

Época: Sep 15, 2026, 02:46 UTC

1 51782C 22017Q   26258.11576389 -.00017247  00000+0 -50963-3 0  2584
2 51782  53.1581 203.2383 0001383  85.6536   0.8316 15.34395070    13

Acompanhe STARLINK-3616 em tempo real com AllMySat

Download on the App Store